Location: Unspecified
(0.0000°N, 0.0000°E)
Time: 06:34:05
(UTC+00:00)

Hubble Space Telescope - Pass Details

Date: 23 January 2018
Orbit: 537 x 541 km, 28.5° (Epoch: 20 January)

Event Time Altitude Azimuth Distance (km) Brightness Sun altitude
Exits shadow 03:54:54 20° 138° (SE) 1,289 3.2 -32.0°
Drops below altitude 10° 03:56:15 10° 132° (SE) 1,790 4.2 -31.7°
Sets 03:58:34 0° 128° (SE) 2,682 5.4 -31.2°
